Location: London
(51.5074°N, 0.1278°W)
Time: 00:49:48
(UTC+01:00)

TIGRISAT - Visible Passes

Search period start: 02 October 2020 00:00
Search period end: 12 October 2020 00:00
Orbit: 604 x 689 km, 97.7° (Epoch: 01 October)

Date Brightness Start Highest point End Pass type
(mag) Time Alt. Az. Time Alt. Az. Time Alt. Az.
02 Oct ? 20:20:34 10° NE 20:23:02 23° ENE 20:23:02 23° ENE visible
02 Oct ? 21:57:02 10° N 22:00:45 40° NW 22:00:45 40° NW visible
03 Oct ? 20:45:51 10° NNE 20:48:38 33° NE 20:48:38 33° NE visible
03 Oct ? 22:22:57 10° N 22:26:21 26° NW 22:26:21 26° NW visible
04 Oct ? 06:16:12 10° ENE 06:17:45 12° NE 06:19:18 10° NNE visible
04 Oct ? 21:11:21 10° NNE 21:14:15 39° NNE 21:14:15 39° NNE visible
04 Oct ? 22:49:07 10° NNW 22:51:57 17° NW 22:51:57 17° NW visible
05 Oct ? 20:01:07 10° NE 20:02:08 14° NE 20:02:08 14° NE visible
05 Oct ? 21:37:00 10° N 21:39:51 37° N 21:39:51 37° N visible
05 Oct ? 23:15:57 10° NW 23:17:21 11° NW 23:17:33 11° NW visible
06 Oct ? 20:26:10 10° NNE 20:27:45 19° NE 20:27:45 19° NE visible
06 Oct ? 22:02:48 10° N 22:05:27 29° NNW 22:05:27 29° NNW visible
07 Oct ? 20:51:31 10° NNE 20:53:21 23° NNE 20:53:21 23° NNE visible
07 Oct ? 22:28:45 10° N 22:31:04 21° NW 22:31:04 21° NW visible
08 Oct ? 06:21:16 10° E 06:23:22 13° NE 06:25:29 10° NNE visible
08 Oct ? 21:17:04 10° NNE 21:18:58 25° NNE 21:18:58 25° NNE visible
08 Oct ? 22:55:01 10° NNW 22:56:41 15° NW 22:56:41 15° NW visible
09 Oct ? 20:06:39 10° NE 20:06:53 11° NE 20:06:53 11° NE visible
09 Oct ? 21:42:44 10° N 21:44:35 23° N 21:44:35 23° N visible
10 Oct ? 20:31:48 10° NNE 20:32:30 14° NNE 20:32:30 14° NNE visible
10 Oct ? 22:08:34 10° N 22:10:12 20° NNW 22:10:12 20° NNW visible
11 Oct ? 20:57:12 10° NNE 20:58:08 16° NNE 20:58:08 16° NNE visible
11 Oct ? 22:34:35 10° N 22:35:50 16° NNW 22:35:50 16° NNW visible
